Melfa, VA

3:10 PM EST on January 20, 2017 (GMT -0500)
Accomack County

Weather History for KMFV - December, 2013

Change the Weather History Date:

Wednesday, December 18, 2013

  Actual Average (KWAL) Record (KWAL)
Temperature  
Mean Temperature 38 °F -  
Max Temperature 44 °F 47 °F 73 °F (1984)
Min Temperature 32 °F 30 °F 16 °F (1989)
Degree Days  
Heating Degree Days 27    
Moisture  
Dew Point 32 °F    
Average Humidity 74    
Maximum Humidity 93    
Minimum Humidity 46    
Precipitation  
Precipitation 0.04 in - - ()
Sea Level Pressure  
Sea Level Pressure 30.16 in    
Wind  
Wind Speed 6 mph (WNW)    
Max Wind Speed 16 mph    
Max Gust Speed 24 mph    
Visibility 9 miles    
Events Rain    
Averages and records for this station are not official NWS values.
T = Trace of Precipitation, MM = Missing Value Source: NWS Daily Summary

Daily Weather History Graph

Daily Weather History Graph

Search for Another Location

Airport or City:

Trip Planner

Search our weather history database for the weather conditions in past years. The results will help you decide how hot, cold, wet, or windy it might be!

Date:

Astronomy

Dec. 18, 2013 Rise Set
Actual Time 7:12 AM EST 4:46 PM EST
Civil Twilight 6:43 AM EST 5:16 PM EST
Nautical Twilight 6:10 AM EST 5:49 PM EST
Astronomical Twilight 5:38 AM EST 6:20 PM EST
Moon 6:15 PM EST (12/18) 7:52 AM EST (12/18)
Length of Visible Light 10h 32m
Length of Day
9h 33m
Full, 98% of the Moon is Illuminated
Dec 18
Full
Dec 25
Last Quarter
Jan 1
New
Jan 7
First Quarter
Jan 15
Full

Hourly Weather History & Observations

Time (EST) Temp. Windchill Dew Point Humidity Pressure Visibility Wind Dir Wind Speed Gust Speed Precip Events Conditions
12:15 AM 44.6 °F - 41.0 °F 87% 29.94 in 3.0 mi Calm Calm - N/A Rain Light Rain
12:35 AM 44.6 °F - 41.0 °F 87% 29.93 in 3.0 mi Calm Calm - N/A   Mostly Cloudy
12:55 AM 44.6 °F 41.4 °F 41.0 °F 87% 29.94 in 3.0 mi West 5.8 mph - N/A   Overcast
1:15 AM 44.6 °F 40.2 °F 41.0 °F 87% 29.95 in 4.0 mi WNW 8.1 mph - N/A   Overcast
1:35 AM 42.8 °F 37.5 °F 39.2 °F 87% 29.96 in 5.0 mi NNW 9.2 mph 18.4 mph N/A   Overcast
1:56 AM 42.8 °F 38.0 °F 39.2 °F 87% 29.98 in 5.0 mi NNW 8.1 mph - N/A   Overcast
2:15 AM 42.8 °F 40.1 °F 39.2 °F 87% 29.99 in 3.0 mi NNW 4.6 mph - 0.01 in Rain Rain
2:35 AM 41.0 °F 38.0 °F 37.4 °F 87% 30.00 in 5.0 mi NNW 4.6 mph - 0.03 in Rain Light Rain
2:55 AM 41.0 °F 36.4 °F 37.4 °F 87% 30.01 in 7.0 mi NW 6.9 mph - 0.04 in Rain Rain
3:15 AM 41.0 °F 37.1 °F 37.4 °F 87% 30.02 in 7.0 mi NW 5.8 mph - N/A   Overcast
3:35 AM 41.0 °F 37.1 °F 37.4 °F 87% 30.03 in 7.0 mi NNW 5.8 mph - N/A   Overcast
3:55 AM 41.0 °F 35.2 °F 37.4 °F 87% 30.03 in 7.0 mi NW 9.2 mph - N/A   Overcast
4:15 AM 41.0 °F 34.7 °F 37.4 °F 87% 30.05 in 7.0 mi WNW 10.4 mph - N/A   Overcast
4:35 AM 39.2 °F 32.5 °F 37.4 °F 93% 30.05 in 7.0 mi NW 10.4 mph - N/A   Overcast
4:55 AM 39.2 °F 33.6 °F 35.6 °F 87% 30.06 in 10.0 mi NW 8.1 mph - N/A   Mostly Cloudy
5:15 AM 39.2 °F 35.0 °F 35.6 °F 87% 30.07 in 10.0 mi NW 5.8 mph - N/A   Mostly Cloudy
5:36 AM 39.2 °F 35.9 °F 35.6 °F 87% 30.08 in 7.0 mi NW 4.6 mph - N/A   Mostly Cloudy
5:55 AM 39.2 °F 35.0 °F 35.6 °F 87% 30.09 in 7.0 mi NW 5.8 mph - N/A   Scattered Clouds
6:15 AM 39.2 °F 33.6 °F 35.6 °F 87% 30.10 in 7.0 mi NW 8.1 mph - N/A   Mostly Cloudy
6:35 AM 39.2 °F 33.6 °F 35.6 °F 87% 30.11 in 7.0 mi WNW 8.1 mph - N/A   Mostly Cloudy
6:55 AM 39.2 °F 34.2 °F 35.6 °F 87% 30.12 in 7.0 mi NW 6.9 mph - N/A   Scattered Clouds
7:15 AM 39.2 °F 33.6 °F 35.6 °F 87% 30.12 in 10.0 mi NW 8.1 mph - N/A   Clear
7:35 AM 39.2 °F 35.0 °F 35.6 °F 87% 30.14 in 10.0 mi WNW 5.8 mph - N/A   Mostly Cloudy
7:57 AM 39.2 °F 32.5 °F 35.6 °F 87% 30.15 in 7.0 mi WNW 10.4 mph 17.3 mph N/A   Mostly Cloudy
8:15 AM 39.2 °F 32.5 °F 35.6 °F 87% 30.16 in 10.0 mi NW 10.4 mph - N/A   Scattered Clouds
8:35 AM 41.0 °F 33.5 °F 35.6 °F 81% 30.16 in 10.0 mi WNW 13.8 mph - N/A   Clear
8:55 AM 42.8 °F 35.8 °F 33.8 °F 70% 30.17 in 10.0 mi NW 13.8 mph 19.6 mph N/A   Clear
9:15 AM 42.8 °F 37.0 °F 33.8 °F 70% 30.18 in 10.0 mi NW 10.4 mph 19.6 mph N/A   Clear
9:35 AM 42.8 °F 35.1 °F 32.0 °F 66% 30.19 in 10.0 mi NW 16.1 mph 24.2 mph N/A   Clear
9:55 AM 42.8 °F 35.8 °F 30.2 °F 61% 30.20 in 10.0 mi NNW 13.8 mph 21.9 mph N/A   Clear
10:15 AM 42.8 °F 35.1 °F 30.2 °F 61% 30.20 in 10.0 mi NW 16.1 mph 23.0 mph N/A   Clear
10:35 AM 42.8 °F 36.2 °F 28.4 °F 57% 30.21 in 10.0 mi NW 12.7 mph 24.2 mph N/A   Clear
10:57 AM 44.6 °F 37.4 °F 28.4 °F 53% 30.20 in 10.0 mi NW 16.1 mph 23.0 mph N/A   Clear
11:15 AM 44.6 °F 39.7 °F 26.6 °F 49% 30.20 in 10.0 mi NNW 9.2 mph 18.4 mph N/A   Clear
11:35 AM 44.6 °F 37.4 °F 26.6 °F 49% 30.20 in 10.0 mi NW 16.1 mph 21.9 mph N/A   Clear
11:55 AM 44.6 °F 38.8 °F 24.8 °F 46% 30.20 in 10.0 mi NW 11.5 mph 20.7 mph N/A   Clear
12:16 PM 44.6 °F 39.7 °F 26.6 °F 49% 30.19 in 10.0 mi NW 9.2 mph 20.7 mph N/A   Clear
12:35 PM 44.6 °F 39.7 °F 26.6 °F 49% 30.18 in 10.0 mi NW 9.2 mph 16.1 mph N/A   Clear
12:55 PM 44.6 °F 38.8 °F 26.6 °F 49% 30.18 in 10.0 mi NW 11.5 mph 18.4 mph N/A   Clear
1:15 PM 44.6 °F 39.2 °F 26.6 °F 49% 30.18 in 10.0 mi WNW 10.4 mph 17.3 mph N/A   Clear
1:35 PM 44.6 °F 39.2 °F 26.6 °F 49% 30.18 in 10.0 mi West 10.4 mph - N/A   Clear
1:55 PM 44.6 °F 39.7 °F 26.6 °F 49% 30.18 in 10.0 mi WNW 9.2 mph - N/A   Clear
2:15 PM 44.6 °F 40.7 °F 26.6 °F 49% 30.19 in 10.0 mi NW 6.9 mph - N/A   Clear
2:35 PM 44.6 °F 40.7 °F 26.6 °F 49% 30.18 in 10.0 mi NW 6.9 mph - N/A   Clear
2:55 PM 44.6 °F 40.2 °F 26.6 °F 49% 30.19 in 10.0 mi NW 8.1 mph - N/A   Clear
3:15 PM 44.6 °F 40.7 °F 28.4 °F 53% 30.19 in 10.0 mi NW 6.9 mph - N/A   Clear
3:35 PM 44.6 °F 40.7 °F 26.6 °F 49% 30.20 in 10.0 mi WNW 6.9 mph - N/A   Clear
3:55 PM 44.6 °F - 26.6 °F 49% 30.20 in 10.0 mi Calm Calm - N/A   Clear
4:17 PM 44.6 °F 42.2 °F 28.4 °F 53% 30.20 in 10.0 mi NNW 4.6 mph - N/A   Clear
4:35 PM 42.8 °F - 28.4 °F 57% 30.21 in 10.0 mi Calm Calm - N/A   Clear
4:55 PM 39.2 °F - 30.2 °F 70% 30.21 in 10.0 mi Calm Calm - N/A   Clear
5:16 PM 37.4 °F 33.8 °F 28.4 °F 70% 30.22 in 10.0 mi South 4.6 mph - N/A   Clear
5:35 PM 37.4 °F - 30.2 °F 75% 30.21 in 10.0 mi Calm Calm - N/A   Clear
5:55 PM 35.6 °F 32.8 °F 28.4 °F 75% 30.23 in 10.0 mi South 3.5 mph - N/A   Clear
6:15 PM 35.6 °F - 28.4 °F 75% 30.23 in 10.0 mi Calm Calm - N/A   Clear
6:35 PM 33.8 °F 30.8 °F 28.4 °F 81% 30.24 in 10.0 mi SW 3.5 mph - N/A   Clear
6:55 PM 33.8 °F - 28.4 °F 81% 30.24 in 10.0 mi Calm Calm - N/A   Clear
7:15 PM 33.8 °F 30.8 °F 28.4 °F 81% 30.25 in 10.0 mi South 3.5 mph - N/A   Clear
7:35 PM 33.8 °F 30.8 °F 28.4 °F 81% 30.25 in 10.0 mi South 3.5 mph - N/A   Clear
7:55 PM 32.0 °F 28.7 °F 28.4 °F 87% 30.25 in 10.0 mi South 3.5 mph - N/A   Clear
8:15 PM 32.0 °F - 28.4 °F 87% 30.25 in 10.0 mi Calm Calm - N/A   Clear
8:35 PM 32.0 °F 27.5 °F 28.4 °F 87% 30.25 in 10.0 mi South 4.6 mph - N/A   Clear
8:55 PM 32.0 °F 26.4 °F 28.4 °F 87% 30.26 in 10.0 mi South 5.8 mph - N/A   Clear
9:15 PM 32.0 °F 27.5 °F 28.4 °F 87% 30.25 in 10.0 mi South 4.6 mph - N/A   Clear
9:35 PM 32.0 °F 27.5 °F 28.4 °F 87% 30.25 in 10.0 mi SSE 4.6 mph - N/A   Clear
9:55 PM 32.0 °F 27.5 °F 28.4 °F 87% 30.25 in 10.0 mi South 4.6 mph - N/A   Clear
10:15 PM 32.0 °F 27.5 °F 28.4 °F 87% 30.26 in 10.0 mi South 4.6 mph - N/A   Clear
10:35 PM 32.0 °F 26.4 °F 28.4 °F 87% 30.26 in 10.0 mi South 5.8 mph - N/A   Clear
10:55 PM 33.8 °F 28.6 °F 28.4 °F 81% 30.26 in 10.0 mi SSW 5.8 mph - N/A   Clear
11:15 PM 33.8 °F 28.6 °F 30.2 °F 87% 30.26 in 10.0 mi South 5.8 mph - N/A   Clear
11:35 PM 33.8 °F 28.6 °F 30.2 °F 87% 30.25 in 10.0 mi South 5.8 mph - N/A   Clear
11:55 PM 33.8 °F 30.8 °F 30.2 °F 87% 30.25 in 10.0 mi South 3.5 mph - N/A   Clear